CZ-4 DEB, 26119

Orbit data source: Space-Track

CZ-4 DEB, 26119 is space debris in SSO originally from a launch on Thu, 14 Oct 1999 UTC launched from the Taiyaun Space Center, China (TSC). Debris objects in space refer to the collection of defunct objects orbiting the Earth. Examples of debris include non-operational satellites, rocket bodies, and fragments generated from explosions, collisions, or faulty payload assembly.

Loading next visibility...
Identifier
26119, 1999-057F
Orbit
SSO
Country
Flag of CNCN / PRC
Related business
Manufacturer
Unknown
Mission
Spacecraft
Bus & Motor
Unknown
Mass
Unknown
Launch date (UTC)
1999-10-14 (26 years ago)
Launch vehicle
Unknown
Launch site
Taiyaun Space Center, China (TSC)
Object type
Payload
Rocket body
Debris
Shape & HBR
Unknown shape, 0.1 m
Radar Cross Section
Medium (>0.1 m² and <1 m²)

Expand to show TLE details & history
Last TLE update: 10 hours ago

TLE from 10 hours ago
0 CZ-4 DEB
1 26119U 99057F   25289.14691483  .00001317  00000-0  10655-2 0  9992
2 26119  99.4024 192.1258 0490736  41.8127  59.6972 13.47106128252919
Epoch: 2025-10-16T03:31Z
TLE epoch observation values (Epoch: 2025-10-16T03:31:33.441Z)
Latitude
71.13739°
Longitude
-36.84916°
Altitude
924.25 km
Speed
7.481 km/s
True Right ascension
02h 43m 48s
True Declination
71° 02' 04"
Sunlit
Object was in daylight at epoch
Visualization orbit readout
Latitude
Unknown
Longitude
Unknown
Altitude
Unknown
Speed
Unknown
Apparent Right ascension
Unknown
Apparent Declination
Unknown
Sunlit
N/A
Visualization observer readout
Local Sidereal Time
07:57:56
Azimuth
Unknown
Elevation
Unknown
Doppler factor
Unknown
Orbital elements
Apogee altitude
1,446.213 km
Perigee altitude
714.197 km
Semi-major axis
7,458.342 km
Eccentricity
0.04907
Inclination
99.4024°
RAAN
192.1258°
Arg. of periapsis
41.8127°
True anomaly
64.70077°
Mean anomaly
59.6972°
Eccentric anomaly
62.18402°
Mean motion
3.36961 °/min
Orbital period
106.84 mins
BSTAR
0.0010655
Loading maneuver chart data...
Computing Atmospheric mass density...
Loading historical data...
Loading historical data...
Loading historical data...
Loading historical data...
Loading historical data...
Loading historical data...
Loading historical data...

Documentation

Showing up to 5 results
|